Weather History for KY51 - December, 2012

Change the Weather History Date:

Sunday, December 2, 2012

  Actual Average (KLSE) Record (KLSE)
Temperature  
Mean Temperature 44 °F 27 °F  
Max Temperature 50 °F 34 °F 64 °F (1982)
Min Temperature 37 °F 19 °F -10 °F (1940)
Degree Days  
Heating Degree Days 22 38  
Month to date heating degree days 76  
Since 1 July heating degree days 1576  
Cooling Degree Days 0 0  
Month to date cooling degree days 0  
Year to date cooling degree days 782  
Moisture  
Dew Point 43 °F    
Average Humidity 99    
Maximum Humidity 100    
Minimum Humidity 93    
Precipitation  
Precipitation 0.00 in 0.05 in 0.80 in (1873)
Month to date precipitation 0.11  
Year to date precipitation 31.81  
Snow  
Snow 0.00 in 0.40 in 4.90 in (1984)
Month to date snowfall 0.7  
Since 1 July snowfall 5.0  
Snow Depth -    
Sea Level Pressure  
Sea Level Pressure 29.93 in    
Wind  
Wind Speed 6 mph (West)    
Max Wind Speed 16 mph    
Max Gust Speed -    
Visibility 2 miles    
Events      
T = Trace of Precipitation, MM = Missing Value Source: NWS Daily Summary

Daily Weather History Graph

Daily Weather History Graph

Search for Another Location

Airport or City:

Trip Planner

Search our weather history database for the weather conditions in past years. The results will help you decide how hot, cold, wet, or windy it might be!

Date:

Astronomy

Dec. 02, 2012 Rise Set
Actual Time 7:18 AM CST 4:27 PM CST
Civil Twilight 6:46 AM CST 4:59 PM CST
Nautical Twilight 6:10 AM CST 5:35 PM CST
Astronomical Twilight 5:36 AM CST 6:10 PM CST
Moon 8:18 PM CST (12/2) 10:05 AM CST (12/2)
Length of Visible Light 10h 13m
Length of Day
9h 09m
Waning Gibbous, 85% of the Moon is Illuminated
Dec 2
Waning Gibbous
Dec 6
Last Quarter
Dec 13
New
Dec 19
First Quarter
Dec 28
Full

Hourly Weather History & Observations

Time (CST) Temp. Windchill Dew Point Humidity Pressure Visibility Wind Dir Wind Speed Gust Speed Precip Events Conditions
12:15 AM 50.0 °F - 50.0 °F 100% 29.82 in 1.0 mi West 8.1 mph - N/A   Overcast
12:35 AM 50.0 °F - 50.0 °F 100% 29.83 in 1.2 mi West 5.8 mph - N/A   Overcast
12:55 AM 50.0 °F - 50.0 °F 100% 29.83 in 1.5 mi WNW 5.8 mph - N/A   Overcast
1:15 AM 48.2 °F - 48.2 °F 100% 29.83 in 2.0 mi WNW 6.9 mph - N/A   Overcast
1:35 AM 46.4 °F 42.9 °F 46.4 °F 100% 29.83 in 2.5 mi WNW 6.9 mph - N/A   Overcast
1:55 AM 46.4 °F 43.5 °F 46.4 °F 100% 29.83 in 3.0 mi WNW 5.8 mph - N/A   Scattered Clouds
2:15 AM 46.4 °F 43.5 °F 46.4 °F 100% 29.84 in 3.0 mi West 5.8 mph - N/A   Clear
2:35 AM 44.6 °F 42.2 °F 44.6 °F 100% 29.85 in 2.0 mi West 4.6 mph - N/A   Clear
2:55 AM 44.6 °F 41.4 °F 44.6 °F 100% 29.86 in 2.0 mi WNW 5.8 mph - N/A   Clear
3:15 AM 42.8 °F 38.6 °F 42.8 °F 100% 29.86 in 1.8 mi West 6.9 mph - N/A   Unknown
3:35 AM 42.8 °F 40.1 °F 42.8 °F 100% 29.86 in 1.2 mi WNW 4.6 mph - N/A   Mostly Cloudy
3:55 AM 42.8 °F 40.1 °F 42.8 °F 100% 29.86 in 1.5 mi West 4.6 mph - N/A   Mostly Cloudy
4:15 AM 42.8 °F 40.1 °F 42.8 °F 100% 29.86 in 0.8 mi WNW 4.6 mph - N/A   Overcast
4:35 AM 42.8 °F 40.1 °F 42.8 °F 100% 29.87 in 0.5 mi West 4.6 mph - N/A   Overcast
4:55 AM 42.8 °F 40.1 °F 42.8 °F 100% 29.87 in 0.2 mi WNW 4.6 mph - N/A   Overcast
5:15 AM 41.0 °F 38.0 °F 41.0 °F 100% 29.89 in 0.2 mi WNW 4.6 mph - N/A   Overcast
5:55 AM 42.8 °F 39.3 °F 42.8 °F 100% 29.90 in 2.0 mi WNW 5.8 mph - N/A   Overcast
6:15 AM 42.8 °F 39.3 °F 42.8 °F 100% 29.91 in 2.0 mi NW 5.8 mph - N/A   Overcast
6:35 AM 41.0 °F 38.0 °F 41.0 °F 100% 29.91 in 1.8 mi NW 4.6 mph - N/A   Overcast
6:55 AM 41.0 °F 36.4 °F 41.0 °F 100% 29.92 in 2.5 mi WNW 6.9 mph - N/A   Overcast
7:15 AM 41.0 °F 37.1 °F 41.0 °F 100% 29.93 in 2.5 mi NW 5.8 mph - N/A   Overcast
7:35 AM 41.0 °F 37.1 °F 41.0 °F 100% 29.94 in 1.5 mi WNW 5.8 mph - N/A   Overcast
7:55 AM 41.0 °F 39.0 °F 41.0 °F 100% 29.95 in 1.5 mi NW 3.5 mph - N/A   Overcast
8:15 AM 41.0 °F 38.0 °F 41.0 °F 100% 29.96 in 1.5 mi WNW 4.6 mph - N/A   Overcast
8:35 AM 41.0 °F 36.4 °F 41.0 °F 100% 29.96 in 1.8 mi NNW 6.9 mph - N/A   Overcast
8:55 AM 41.0 °F 38.0 °F 41.0 °F 100% 29.97 in 1.5 mi NNW 4.6 mph - N/A   Overcast
9:15 AM 41.0 °F 38.0 °F 41.0 °F 100% 29.97 in 1.5 mi NNW 4.6 mph - N/A   Overcast
9:35 AM 41.0 °F 38.0 °F 41.0 °F 100% 29.98 in 1.5 mi NNW 4.6 mph - N/A   Overcast
10:15 AM 41.0 °F 38.0 °F 41.0 °F 100% 29.99 in 1.8 mi NW 4.6 mph - N/A   Overcast
10:35 AM 42.8 °F 39.3 °F 42.8 °F 100% 30.00 in 1.8 mi NNW 5.8 mph - N/A   Overcast
10:55 AM 42.8 °F 40.1 °F 42.8 °F 100% 30.00 in 2.0 mi North 4.6 mph - N/A   Overcast
11:15 AM 42.8 °F - 42.8 °F 100% 30.00 in 2.0 mi Calm Calm - N/A   Overcast
11:55 AM 42.8 °F - 42.8 °F 100% 29.99 in 2.0 mi Calm Calm - N/A   Overcast
12:15 PM 42.8 °F - 42.8 °F 100% 29.99 in 2.0 mi Calm Calm - N/A   Overcast
12:35 PM 42.8 °F - 42.8 °F 100% 29.98 in 2.5 mi Calm Calm - N/A   Overcast
12:55 PM 42.8 °F - 42.8 °F 100% 29.98 in 2.5 mi Calm Calm - N/A   Overcast
1:15 PM 42.8 °F - 42.8 °F 100% 29.97 in 2.5 mi Calm Calm - N/A   Overcast
1:35 PM 42.8 °F - 42.8 °F 100% 29.97 in 2.5 mi Calm Calm - N/A   Mostly Cloudy
1:55 PM 44.6 °F - 42.8 °F 93% 29.98 in 3.0 mi Calm Calm - N/A   Scattered Clouds
2:15 PM 44.6 °F - 42.8 °F 93% 29.97 in 3.0 mi Calm Calm - N/A   Scattered Clouds
2:35 PM 44.6 °F - 42.8 °F 93% 29.95 in 3.0 mi Calm Calm - N/A   Clear
2:55 PM 46.4 °F 45.2 °F 44.6 °F 93% 29.95 in 3.0 mi SSE 3.5 mph - N/A   Clear
3:15 PM 44.6 °F 43.1 °F 42.8 °F 93% 29.95 in 4.0 mi SE 3.5 mph - N/A   Clear
3:35 PM 44.6 °F 43.1 °F 42.8 °F 93% 29.96 in 3.0 mi SSE 3.5 mph - N/A   Clear
3:55 PM 44.6 °F - 42.8 °F 93% 29.97 in 3.0 mi Calm Calm - N/A   Clear
4:15 PM 44.6 °F - 42.8 °F 93% 29.99 in 2.5 mi Calm Calm - N/A   Clear
4:55 PM 42.8 °F - 42.8 °F 100% 30.00 in 4.0 mi Calm Calm - N/A   Clear
5:35 PM 37.4 °F - 37.4 °F 100% 30.00 in 1.5 mi Calm Calm - N/A   Unknown
6:15 PM 41.0 °F 35.8 °F 41.0 °F 100% 29.98 in 4.0 mi SE 8.1 mph - N/A   Clear
6:35 PM 41.0 °F 34.3 °F 41.0 °F 100% 29.97 in 4.0 mi SE 11.5 mph - N/A   Clear
7:15 PM 41.0 °F 34.7 °F 41.0 °F 100% 29.97 in 4.0 mi SE 10.4 mph - N/A   Clear
7:55 PM 41.0 °F 34.7 °F 41.0 °F 100% 29.96 in 3.0 mi SE 10.4 mph - N/A   Clear
8:15 PM 39.2 °F 33.0 °F 39.2 °F 100% 29.96 in 2.5 mi ESE 9.2 mph - N/A   Clear
8:35 PM 39.2 °F 33.0 °F 39.2 °F 100% 29.96 in 2.5 mi SE 9.2 mph - N/A   Clear
8:55 PM 41.0 °F 34.7 °F 41.0 °F 100% 29.96 in 3.0 mi SE 10.4 mph - N/A   Clear
9:15 PM 42.8 °F 36.2 °F 42.8 °F 100% 29.96 in 4.0 mi SE 12.7 mph - N/A   Clear
9:35 PM 41.0 °F 34.7 °F 41.0 °F 100% 29.96 in 3.0 mi SE 10.4 mph - N/A   Clear
9:55 PM 41.0 °F 35.2 °F 41.0 °F 100% 29.96 in 2.5 mi SE 9.2 mph - N/A   Clear
10:15 PM 41.0 °F 34.7 °F 41.0 °F 100% 29.96 in 2.5 mi ESE 10.4 mph - N/A   Clear
10:55 PM 42.8 °F 36.6 °F 42.8 °F 100% 29.93 in 0.5 mi SE 11.5 mph - N/A   Overcast
11:15 PM 42.8 °F 35.4 °F 42.8 °F 100% 29.92 in 0.2 mi SE 15.0 mph - N/A   Overcast
11:35 PM 42.8 °F 35.1 °F 42.8 °F 100% 29.92 in 0.2 mi SSE 16.1 mph - N/A   Overcast
11:55 PM 42.8 °F 36.2 °F 42.8 °F 100% 29.93 in 0.2 mi SSE 12.7 mph - N/A   Overcast